This demonstration page uses our WeatherBlox Daily Observations layout. Learn more.

Left ArrowRight Arrow

Hourly Observations for June 21, 2019

Temp ( °F °C ) Dew Point ( °F °C ) Humidity (%) Winds ( mph kmh ) Pressure ( in mb ) Visibility ( mi km ) Precip ( " mm )
12:00 am 00:00 Cloudy with Thunderstorms 72 22 66 19 83 83 NNE 14 22 29.58 1002 10 16 0.00 0.03
12:32 am 00:32 Cloudy with Thunderstorms 72 22 66 19 83 83 NNE 16 26 29.60 1002 10 16 0.00 0.00
12:44 am 00:44 Windy with Storms Likely 66 19 61 16 83 83 NNW 31 50 29.67 1005 10 16 0.01 0.25
12:52 am 00:52 Cloudy with Strong Thunderstorms 63 17 61 16 94 94 NNW 31 50 29.68 1005 3 4 0.31 7.87
12:56 am 00:56 Cloudy with Strong Thunderstorms 61 16.1 60 15.6 97 97 NNW 18 30 29.72 1006 2 3 0.45 11.43
1:06 am 01:06 Cloudy with Strong Thunderstorms 61 16 61 16 100 100 S 16 26 29.75 1007 10 16 0.13 3.30
1:10 am 01:10 Cloudy with Strong Thunderstorms 63 17 61 16 94 94 S 16 26 29.73 1007 10 16 0.18 4.57
1:21 am 01:21 Cloudy with Thunderstorms 63 17 61 16 94 94 SSE 8 13 29.70 1006 10 16 0.23 5.84
1:42 am 01:42 Cloudy with Light Rain 63 17 61 16 94 94 ESE 9 15 29.65 1004 10 16 0.00 0.00
1:56 am 01:56 Cloudy with Light Rain 63 17.2 62 16.7 97 97 SSW 7 11 29.67 1005 10 16 0.25 6.35
2:40 am 02:40 Cloudy with Nearby Thunderstorms 64 18 61 16 88 88 SE 12 19 29.66 1004 10 16 0.03 0.76
2:56 am 02:56 Cloudy with Nearby Thunderstorms 65 18.3 61 16.1 87 87 ESE 15 24 29.62 1003 10 16 0.06 1.52
3:36 am 03:36 Cloudy with Thunderstorms 64 18 61 16 88 88 ENE 13 20 29.55 1001 10 16 0.04 1.02
3:56 am 03:56 Cloudy with Strong Thunderstorms 65 18.3 61 16.1 87 87 WNW 14 22 29.64 1004 10 16 0.12 3.05
4:03 am 04:03 Cloudy with Strong Thunderstorms 64 18 61 16 88 88 WSW 12 19 29.66 1004 9 14 0.00 0.00
4:11 am 04:11 Cloudy with Strong Thunderstorms 64 18 61 16 88 88 W 13 20 29.66 1004 10 16 0.00 0.00
4:15 am 04:15 Cloudy with Thunderstorms 64 18 61 16 88 88 W 8 13 29.66 1004 10 16 0.25 6.35
4:56 am 04:56 Cloudy with Light Rain 63 17.2 62 16.7 97 97 NNW 10 17 29.66 1004 10 16 0.52 13.21
5:03 am 05:03 Cloudy with Nearby Thunderstorms 64 18 61 16 88 88 N 15 24 29.63 1003 10 16 0.01 0.25
5:29 am 05:29 Cloudy with Light Rain 63 17 63 17 100 100 NE 9 15 29.62 1003 10 16 0.02 0.51
5:56 am 05:56 Mostly Clear 64 17.8 61 16.1 90 90 ENE 9 15 29.59 1002 10 16 0.02 0.51
6:56 am 06:56 Partly Cloudy 64 17.8 61 16.1 90 90 ESE 10 17 29.62 1003 10 16 0.00 0.00
7:56 am 07:56 Sunny 64 17.8 61 16.1 90 90 SE 13 20 29.61 1003 10 16 0.00 0.00
8:56 am 08:56 Sunny 66 18.9 61 16.1 84 84 WNW 10 17 29.64 1004 10 16 0.00 0.00
9:56 am 09:56 Sunny 69 20.6 62 16.7 78 78 VRB 3 6 29.65 1004 10 16 0.00 0.00
10:56 am 10:56 Sunny 72 22.2 62 16.7 71 71 Calm 29.67 1005 10 16 0.00 0.00
11:56 am 11:56 Sunny 74 23.3 64 17.8 71 71 Calm 29.67 1005 10 16 0.00 0.00
12:56 pm 12:56 Sunny 77 25 64 17.8 64 64 E 8 13 29.70 1006 10 16 0.00 0.00
1:56 pm 13:56 Mostly Sunny 77 25 64 17.8 64 64 Calm 29.71 1006 10 16 0.00 0.00
2:56 pm 14:56 Mostly Sunny 78 25.6 65 18.3 64 64 VRB 3 6 29.70 1006 10 16 0.00 0.00
3:56 pm 15:56 Mostly Cloudy 79 26.1 64 17.8 60 60 Calm 29.70 1006 10 16 0.00 0.00
4:56 pm 16:56 Mostly Sunny 82 27.8 66 18.9 58 58 NNW 10 17 29.70 1006 10 16 0.00 0.00
5:56 pm 17:56 Sunny 81 27.2 65 18.3 58 58 NNE 6 9 29.71 1006 10 16 0.00 0.00
6:56 pm 18:56 Mostly Cloudy 81 27.2 64 17.8 57 57 NNW 17 28 29.71 1006 10 16 0.00 0.00
7:56 pm 19:56 Mostly Sunny 76 24.4 56 13.3 50 50 NNW 17 28 29.77 1008 10 16 0.00 0.00
8:56 pm 20:56 Mostly Sunny 73 22.8 55 12.8 53 53 N 13 20 29.78 1009 10 16 0.00 0.00
9:56 pm 21:56 Partly Cloudy 70 21.1 54 12.2 57 57 NNW 12 19 29.81 1010 10 16 0.00 0.00
10:56 pm 22:56 Cloudy 68 20 55 12.8 63 63 N 16 26 29.84 1010 10 16 0.00 0.00
11:56 pm 23:56 Cloudy 67 19.4 57 13.9 71 71 N 13 20 29.85 1011 10 16 0.00 0.00

Powered by AerisWeather